Location: Palo Alto
(37.4420°N, 122.1420°W)
Time: 23:45:15
(UTC-07:00)

ISS - All Passes

Search period start: 23 August 2016 00:00
Search period end: 02 September 2016 00:00
Orbit: 400 x 403 km, 51.6° (Epoch: 23 August)

Date Brightness Start Highest point End Pass type
(mag) Time Alt. Az. Time Alt. Az. Time Alt. Az.
23 Aug - 09:43:00 10° S 09:45:08 17° SE 09:47:18 10° E daylight
23 Aug - 11:18:11 10° WSW 11:21:19 42° NW 11:24:27 10° NE daylight
23 Aug - 12:57:50 10° NNW 12:58:26 10° NNW 12:59:01 10° N daylight
23 Aug - 16:11:47 10° NNW 16:13:48 15° NNE 16:15:47 10° ENE daylight
23 Aug - 17:47:19 10° NW 17:50:35 83° SW 17:53:49 10° SE daylight
24 Aug - 10:24:55 10° SW 10:28:10 88° NW 10:31:26 10° NE daylight
24 Aug - 12:03:06 10° WNW 12:05:00 14° NNW 12:06:53 10° NNE daylight
24 Aug - 15:19:29 10° N 15:20:22 11° NNE 15:21:15 10° NE daylight
24 Aug - 16:54:17 10° NW 16:57:27 46° NE 17:00:35 10° ESE daylight
24 Aug - 18:31:39 10° W 18:33:34 15° SW 18:35:29 10° SSW daylight
25 Aug - 09:32:02 10° SSW 09:35:07 41° SE 09:38:13 10° ENE daylight
25 Aug - 11:09:03 10° W 11:11:38 21° NNW 11:14:15 10° NNE daylight
25 Aug - 16:01:25 10° NNW 16:04:13 26° NNE 16:07:00 10° E daylight
25 Aug - 17:37:43 10° WNW 17:40:38 30° SW 17:43:31 10° SSE daylight
26 Aug - 08:39:41 10° S 08:42:08 20° SE 08:44:36 10° E daylight
26 Aug - 10:15:20 10° WSW 10:18:22 36° NW 10:21:26 10° NE daylight
26 Aug - 15:08:41 10° NNW 15:10:53 17° NNE 15:13:05 10° ENE daylight
26 Aug - 16:44:22 10° NW 16:47:36 68° SW 16:50:49 10° SE daylight
27 Aug - 09:21:56 10° SW 09:25:11 72° NW 09:28:27 10° NE daylight
27 Aug - 11:00:27 10° NW 11:02:05 13° NNW 11:03:45 10° N daylight
27 Aug - 14:16:12 10° N 14:17:28 12° NNE 14:18:44 10° NE daylight
27 Aug - 15:51:16 10° NW 15:54:28 56° NE 15:57:40 10° ESE daylight
27 Aug - 17:29:07 10° WSW 17:30:31 12° SW 17:31:55 10° SSW daylight
28 Aug - 08:28:56 10° SSW 08:32:05 51° SE 08:35:16 10° ENE daylight
28 Aug - 10:06:15 10° WNW 10:08:42 19° NNW 10:11:09 10° NNE daylight
28 Aug - 14:58:20 10° NNW 15:01:15 29° NNE 15:04:09 10° E daylight
28 Aug - 16:34:51 10° WNW 16:37:35 25° SW 16:40:19 10° S daylight
29 Aug - 07:36:24 10° S 07:39:04 24° SE 07:41:46 10° ENE daylight
29 Aug - 09:12:26 10° W 09:15:23 31° NNW 09:18:21 10° NNE daylight
29 Aug - 14:05:33 10° NNW 14:07:56 18° NNE 14:10:19 10° ENE daylight
29 Aug - 15:41:22 10° WNW 15:44:34 54° SW 15:47:44 10° SE daylight
30 Aug - 06:44:56 10° SSE 06:46:08 12° SE 06:47:20 10° ESE daylight
30 Aug - 08:18:57 10° WSW 08:22:10 60° NW 08:25:24 10° NE daylight
30 Aug - 09:57:45 10° NW 09:59:08 12° NNW 10:00:31 10° N daylight
30 Aug - 13:12:58 10° N 13:14:31 13° NNE 13:16:04 10° NE daylight
30 Aug - 14:48:12 10° NW 14:51:27 68° NE 14:54:41 10° ESE daylight
30 Aug - 16:27:10 10° WSW 16:27:25 10° SW 16:27:41 10° SW daylight
31 Aug - 07:25:49 10° SW 07:29:02 63° SE 07:32:16 10° NE daylight
31 Aug - 09:03:26 10° WNW 09:05:43 17° NNW 09:07:59 10° NNE daylight
31 Aug - 13:55:13 10° NW 13:58:14 34° NNE 14:01:14 10° ESE daylight
31 Aug - 15:31:58 10° W 15:34:30 21° SW 15:37:01 10° S daylight
01 Sep - 06:33:07 10° SSW 06:35:58 28° SE 06:38:50 10° ENE daylight
01 Sep - 08:09:31 10° W 08:12:21 27° NNW 08:15:13 10° NNE daylight
01 Sep - 13:02:22 10° NNW 13:04:56 21° NNE 13:07:28 10° E daylight
01 Sep - 14:38:21 10° WNW 14:41:29 44° SW 14:44:35 10° SSE daylight
